Location: Squirrel Cove
(50.1074°N, 124.9139°W)
Time: 12:34:24
(UTC-07:00)

BlueWalker 3 - Visible Passes

Search period start: 08 October 2024 00:00
Search period end: 18 October 2024 00:00
Orbit: 473 x 485 km, 53.2° (Epoch: 08 October)

Date Brightness Start Highest point End Pass type
(mag) Time Alt. Az. Time Alt. Az. Time Alt. Az.
08 Oct 4.5 04:31:29 16° ESE 04:31:29 16° ESE 04:32:47 10° E visible
08 Oct 1.8 06:05:41 26° WSW 06:07:41 78° SSE 06:11:23 10° ENE visible
09 Oct 1.8 05:38:40 54° SW 05:39:22 72° SSE 05:43:03 10° ENE visible
10 Oct 2.4 05:11:32 56° ESE 05:11:32 56° ESE 05:14:40 10° ENE visible
10 Oct 2.2 06:45:43 12° W 06:49:04 53° N 06:52:43 10° ENE visible
11 Oct 3.8 04:44:17 28° E 04:44:17 28° E 04:46:12 10° ENE visible
11 Oct 2.2 06:18:28 23° W 06:20:35 55° N 06:24:14 10° ENE visible
12 Oct 4.8 04:16:57 15° ENE 04:16:57 15° ENE 04:17:39 10° ENE visible
12 Oct 2.1 05:51:07 42° WNW 05:52:02 56° N 05:55:41 10° ENE visible
13 Oct 2.2 05:23:41 56° NNE 05:23:41 56° NNE 05:27:04 10° ENE visible
13 Oct 2.3 06:58:02 10° WNW 07:01:42 55° N 07:05:20 10° E visible
14 Oct 3.5 04:56:11 33° NE 04:56:11 33° NE 04:58:24 10° ENE visible
14 Oct 2.3 06:30:21 17° WNW 06:33:00 54° N 06:36:38 10° E visible
15 Oct 4.6 04:28:37 18° ENE 04:28:37 18° ENE 04:29:38 10° ENE visible
15 Oct 2.3 06:02:47 31° NW 06:04:13 53° N 06:07:51 10° E visible
16 Oct 2.2 05:35:10 51° N 05:35:23 52° N 05:39:01 10° E visible
16 Oct 1.8 07:09:47 10° WNW 07:13:29 77° SSW 07:17:11 10° ESE visible
17 Oct 3.2 05:07:30 37° NE 05:07:30 37° NE 05:10:05 10° E visible
17 Oct 1.8 06:41:40 15° WNW 06:44:36 83° SSW 06:48:18 10° ESE visible
